Find Kosmos-862

NORAD ID: 9495 Int'l Des: 1976-105 Owner: PVO Country: SU operational
MEOELLIPTICALHEO_ELLIPTICALSEMI_SYNC

Aktuelle Ansicht

3D-Globus wird geladen...

Über Kosmos-862

Beschreibung wird geladen...

Nächste Überflüge

Passes for default location (London). Set your location on the main map for personalized predictions.

Höhenverlauf

Loading altitude history...

Zweizeiliger Elementsatz

1 09495U 76105A 26080.28068858 .00000641 00000-0 00000-0 0 9998
2 09495 70.5006 42.1102 6268675 183.7336 167.5610 2.00630682239892
Epoch: 21. März 2026 • Age: 1678 hours

Aktueller Status

Höhe 28521.8 km
Geschwindigkeit 2.80 km/s
Subsatellitenpunkt 30.07°N, 94.66°E
Typ other

Most Searched